FLOCK 2K-41 (42875 NORAD) Tracking and Keplerian Element Data

This shows tracking and keplerian element data for the satellite.

Feedback or suggestion? Click here.




ElementValue
Catalog42875
NameFLOCK 2K-41
Epoch Orbit3291
Epoch Day46.2040724
Epoch Year2018
RAAN309.0199
Inclination96.9926
Eccentricity0.0012119
Argument of Perigee174.655
Mean Anonmoly185.4827
Mean Motion15.35885954
Decay Rate2.951E-05
L11 42875U 17042BC 18046.20407240 .00002951 00000-0 86469-4 0 9992
L22 42875 96.9926 309.0199 0012119 174.6550 185.4827 15.35885954 32915

Live tracking and technical data element details for FLOCK 2K-41 (NORAD 42875). FLOCK 2K-41 can be tracked NOW for your location showing map with azimuth and elevation plus other details from your city location.

Track the satellite on the map from your city or location and see movement details for azimuth, elevation, latitude, longitude, range, height, and movement on the map or in text.







IsCatalogInMostPopularTable: catalog: 42875, numindb: 131
Update: records affected: 1



GetName: 42875 FLOCK 2K-41

Hit Count: updated at: Tue, 18 Dec 2018 21:17:37 GMT